Location: Ash Swamp
(41.5170°N, 74.6157°W)
Time: 17:20:22
(UTC+00:00)

Cosmos 304 Rocket - Pass Details

Date: 14 July 2020
Orbit: 679 x 688 km, 74.0° (Epoch: 05 August)

Event Time Altitude Azimuth Distance (km) Brightness Sun altitude
Rises 03:47:18 0° 340° (NNW) 3,066 8.6 -24.4°
Reaches altitude 10° 03:49:37 10° 341° (NNW) 2,145 7.4 -24.5°
Maximum altitude 03:54:27 87° 69° (ENE) 694 3.6 -24.8°
Enters shadow 03:54:35 84° 123° (ESE) 696 3.6 -24.8°
